• In Uzbekistan
  • List of Countries
  • For 7 days
  • Water Temperature
  • Satellite Maps
  • Weather Map
  • Weather Widgets
  • user-avatar
    Login

    Hourly Weather Vólosz

    Today, 22 October, Monday

    Time Temperature Precipitation Wind Pressure Humidity
    00:00 +16°C° 0.1 mm 2 mps 724 mmHg 72%
    01:00 +16°C° 0.1 mm 2 mps 724 mmHg 73%
    02:00 +16°C° 0.1 mm 2 mps 724 mmHg 73%
    03:00 +15°C° 0.1 mm 2 mps 724 mmHg 74%
    04:00 +15°C° 0.1 mm 2 mps 724 mmHg 75%
    05:00 +15°C° 0.1 mm 2 mps 724 mmHg 76%
    06:00 +14°C° 0.4 mm 3 mps 724 mmHg 77%
    07:00 +14°C° 0.4 mm 3 mps 724 mmHg 78%
    08:00 +14°C° 0.4 mm 3 mps 724 mmHg 79%
    09:00 +14°C° 0.5 mm 4 mps 724 mmHg 78%
    10:00 +15°C° 0.5 mm 4 mps 724 mmHg 77%
    11:00 +15°C° 0.5 mm 4 mps 724 mmHg 76%
    12:00 +15°C° 0.4 mm 4 mps 724 mmHg 76%
    13:00 +15°C° 0.4 mm 4 mps 724 mmHg 75%
    14:00 +15°C° 0.4 mm 5 mps 723 mmHg 75%
    15:00 +15°C° 0.3 mm 4 mps 723 mmHg 76%
    16:00 +15°C° 0.3 mm 4 mps 723 mmHg 77%
    17:00 +15°C° 0.3 mm 4 mps 723 mmHg 78%
    18:00 +14°C° 0.6 mm 4 mps 723 mmHg 79%
    19:00 +14°C° 0.6 mm 4 mps 723 mmHg 80%
    20:00 +14°C° 0.6 mm 4 mps 723 mmHg 81%
    21:00 +14°C° 0.7 mm 4 mps 723 mmHg 82%
    22:00 +14°C° 0.7 mm 4 mps 723 mmHg 83%
    23:00 +14°C° 0.7 mm 3 mps 723 mmHg 84%

    Tomorrow, 23 October, Tuesday

    Time Temperature Precipitation Wind Pressure Humidity
    00:00 +14°C° 0.8 mm 4 mps 723 mmHg 85%
    01:00 +14°C° 0.8 mm 4 mps 723 mmHg 86%
    02:00 +14°C° 0.8 mm 4 mps 723 mmHg 87%
    03:00 +14°C° 1 mm 4 mps 723 mmHg 87%
    04:00 +13°C° 1 mm 4 mps 722 mmHg 87%
    05:00 +13°C° 1 mm 4 mps 722 mmHg 87%
    06:00 +13°C° 0.9 mm 5 mps 722 mmHg 86%
    07:00 +13°C° 0.9 mm 5 mps 723 mmHg 85%
    08:00 +13°C° 0.9 mm 5 mps 723 mmHg 84%
    09:00 +14°C° 0.8 mm 5 mps 723 mmHg 82%
    10:00 +14°C° 0.8 mm 5 mps 723 mmHg 81%
    11:00 +14°C° 0.8 mm 5 mps 723 mmHg 79%
    12:00 +14°C° 0.6 mm 4 mps 723 mmHg 78%
    13:00 +14°C° 0.6 mm 4 mps 722 mmHg 77%
    14:00 +14°C° 0.6 mm 4 mps 722 mmHg 75%
    15:00 +14°C° 0.2 mm 3 mps 722 mmHg 75%
    16:00 +14°C° 0.2 mm 3 mps 722 mmHg 74%
    17:00 +15°C° 0.2 mm 2 mps 721 mmHg 73%
    18:00 +15°C° 0 mm 2 mps 722 mmHg 74%
    19:00 +15°C° 0 mm 2 mps 722 mmHg 75%
    20:00 +14°C° 0 mm 2 mps 722 mmHg 76%
    21:00 +14°C° 0 mm 2 mps 722 mmHg 77%
    22:00 +14°C° 0 mm 2 mps 722 mmHg 78%
    23:00 +13°C° 0 mm 2 mps 722 mmHg 79%

    Day after tomorrow, 24 October, Wednesday

    Time Temperature Precipitation Wind Pressure Humidity
    00:00 +13°C° 0 mm 2 mps 721 mmHg 80%
    01:00 +13°C° 0 mm 2 mps 721 mmHg 81%
    02:00 +12°C° 0 mm 2 mps 721 mmHg 82%
    03:00 +12°C° 0 mm 2 mps 720 mmHg 82%
    04:00 +12°C° 0 mm 2 mps 720 mmHg 81%
    05:00 +11°C° 0 mm 3 mps 719 mmHg 81%
    06:00 +11°C° 0 mm 3 mps 719 mmHg 79%
    07:00 +11°C° 0 mm 3 mps 719 mmHg 78%
    08:00 +12°C° 0 mm 3 mps 719 mmHg 76%
    09:00 +14°C° 0 mm 2 mps 719 mmHg 70%
    10:00 +15°C° 0 mm 2 mps 719 mmHg 64%
    11:00 +17°C° 0 mm 2 mps 719 mmHg 57%
    12:00 +18°C° 0 mm 2 mps 718 mmHg 54%
    13:00 +19°C° 0 mm 2 mps 717 mmHg 50%
    14:00 +19°C° 0 mm 2 mps 717 mmHg 47%
    15:00 +19°C° 0 mm 2 mps 716 mmHg 49%
    16:00 +20°C° 0 mm 1 mps 716 mmHg 51%
    17:00 +20°C° 0 mm 1 mps 716 mmHg 52%
    18:00 +19°C° 0 mm 1 mps 716 mmHg 54%
    19:00 +17°C° 0 mm 2 mps 716 mmHg 56%
    20:00 +17°C° 0 mm 2 mps 716 mmHg 58%
    21:00 +16°C° 0 mm 2 mps 717 mmHg 58%
    22:00 +16°C° 0 mm 3 mps 717 mmHg 59%
    23:00 +15°C° 0 mm 4 mps 718 mmHg 59%

    25 October, Thursday

    Time Temperature Precipitation Wind Pressure Humidity
    00:00 +14°C° 0 mm 5 mps 718 mmHg 60%
    01:00 +13°C° 0 mm 6 mps 718 mmHg 60%
    02:00 +12°C° 0 mm 8 mps 718 mmHg 60%
    03:00 +11°C° 0 mm 8 mps 719 mmHg 60%
    04:00 +10°C° 0 mm 8 mps 719 mmHg 61%
    05:00 +10°C° 0 mm 8 mps 719 mmHg 61%
    06:00 +9°C° 0 mm 8 mps 720 mmHg 59%
    07:00 +9°C° 0 mm 8 mps 720 mmHg 57%
    08:00 +8°C° 0 mm 9 mps 721 mmHg 55%
    09:00 +10°C° 0 mm 8 mps 721 mmHg 49%
    10:00 +10°C° 0 mm 8 mps 722 mmHg 43%
    11:00 +11°C° 0 mm 8 mps 722 mmHg 37%
    12:00 +12°C° 0 mm 8 mps 722 mmHg 35%
    13:00 +12°C° 0 mm 7 mps 722 mmHg 32%
    14:00 +14°C° 0 mm 7 mps 722 mmHg 29%
    15:00 +14°C° 0 mm 6 mps 722 mmHg 30%
    16:00 +13°C° 0 mm 5 mps 722 mmHg 30%
    17:00 +13°C° 0 mm 5 mps 722 mmHg 31%
    18:00 +12°C° 0 mm 5 mps 723 mmHg 32%
    19:00 +12°C° 0 mm 4 mps 723 mmHg 34%
    20:00 +11°C° 0 mm 4 mps 724 mmHg 35%
    21:00 +11°C° 0 mm 4 mps 724 mmHg 35%
    22:00 +10°C° 0 mm 3 mps 724 mmHg 36%
    23:00 +10°C° 0 mm 3 mps 725 mmHg 37%

    26 October, Friday

    Time Temperature Precipitation Wind Pressure Humidity
    00:00 +10°C° 0 mm 3 mps 725 mmHg 37%
    01:00 +10°C° 0 mm 3 mps 725 mmHg 38%
    02:00 +10°C° 0 mm 3 mps 725 mmHg 39%
    03:00 +9°C° 0 mm 2 mps 725 mmHg 40%
    04:00 +9°C° 0 mm 2 mps 725 mmHg 40%
    05:00 +9°C° 0 mm 2 mps 725 mmHg 41%
    06:00 +9°C° 0 mm 2 mps 725 mmHg 41%
    07:00 +11°C° 0 mm 1 mps 725 mmHg 42%
    08:00 +11°C° 0 mm 1 mps 725 mmHg 43%
    09:00 +13°C° 0 mm 1 mps 725 mmHg 38%
    10:00 +14°C° 0 mm 1 mps 726 mmHg 33%
    11:00 +16°C° 0 mm 1 mps 726 mmHg 29%
    12:00 +18°C° 0 mm 1 mps 726 mmHg 28%
    13:00 +17°C° 0 mm 2 mps 725 mmHg 28%
    14:00 +18°C° 0 mm 2 mps 725 mmHg 27%
    15:00 +18°C° 0 mm 2 mps 725 mmHg 31%
    16:00 +17°C° 0 mm 2 mps 725 mmHg 35%
    17:00 +17°C° 0 mm 2 mps 725 mmHg 39%
    18:00 +16°C° 0 mm 2 mps 725 mmHg 43%
    19:00 +15°C° 0 mm 2 mps 725 mmHg 46%
    20:00 +15°C° 0 mm 2 mps 725 mmHg 50%
    21:00 +14°C° 0 mm 2 mps 726 mmHg 53%
    22:00 +14°C° 0 mm 2 mps 726 mmHg 55%
    23:00 +14°C° 0 mm 2 mps 726 mmHg 58%

    27 October, Saturday

    Time Temperature Precipitation Wind Pressure Humidity
    00:00 +14°C° 0 mm 2 mps 726 mmHg 60%
    01:00 +14°C° 0 mm 2 mps 726 mmHg 62%
    02:00 +13°C° 0 mm 2 mps 725 mmHg 65%
    03:00 +13°C° 0 mm 2 mps 725 mmHg 67%
    04:00 +13°C° 0 mm 1 mps 725 mmHg 68%
    05:00 +13°C° 0 mm 1 mps 725 mmHg 70%
    06:00 +13°C° 0 mm 1 mps 725 mmHg 70%
    07:00 +13°C° 0 mm 1 mps 725 mmHg 70%
    08:00 +14°C° 0 mm 1 mps 725 mmHg 70%
    09:00 +15°C° 0 mm 1 mps 725 mmHg 65%
    10:00 +18°C° 0 mm 1 mps 725 mmHg 60%
    11:00 +19°C° 0 mm 1 mps 725 mmHg 54%
    12:00 +20°C° 0 mm 1 mps 725 mmHg 52%
    13:00 +20°C° 0 mm 2 mps 725 mmHg 49%
    14:00 +21°C° 0 mm 2 mps 724 mmHg 47%
    15:00 +20°C° 0 mm 2 mps 724 mmHg 50%
    16:00 +20°C° 0 mm 2 mps 724 mmHg 53%
    17:00 +19°C° 0 mm 2 mps 724 mmHg 56%
    18:00 +18°C° 0 mm 2 mps 724 mmHg 60%
    19:00 +17°C° 0 mm 2 mps 724 mmHg 64%
    20:00 +17°C° 0 mm 2 mps 724 mmHg 69%
    21:00 +16°C° 0 mm 2 mps 724 mmHg 70%
    22:00 +16°C° 0 mm 2 mps 724 mmHg 71%
    23:00 +16°C° 0 mm 2 mps 724 mmHg 72%

    28 October, Sunday

    Time Temperature Precipitation Wind Pressure Humidity
    00:00 +15°C° 0 mm 2 mps 724 mmHg 73%
    01:00 +15°C° 0 mm 2 mps 724 mmHg 74%
    02:00 +14°C° 0 mm 2 mps 724 mmHg 74%
    03:00 +14°C° 0 mm 2 mps 724 mmHg 75%
    04:00 +14°C° 0 mm 2 mps 724 mmHg 75%
    05:00 +14°C° 0 mm 2 mps 724 mmHg 76%
    06:00 +14°C° 0 mm 2 mps 724 mmHg 74%
    07:00 +14°C° 0 mm 1 mps 724 mmHg 73%
    08:00 +14°C° 0 mm 1 mps 724 mmHg 71%
    09:00 +16°C° 0 mm 1 mps 724 mmHg 65%
    10:00 +18°C° 0 mm 1 mps 724 mmHg 58%
    11:00 +20°C° 0 mm 1 mps 725 mmHg 52%
    12:00 +21°C° 0 mm 1 mps 724 mmHg 49%
    13:00 +21°C° 0 mm 2 mps 724 mmHg 47%
    14:00 +21°C° 0 mm 2 mps 724 mmHg 45%
    15:00 +21°C° 0 mm 2 mps 724 mmHg 48%
    16:00 +20°C° 0 mm 2 mps 723 mmHg 51%
    17:00 +20°C° 0 mm 2 mps 723 mmHg 55%
    18:00 +19°C° 0 mm 2 mps 723 mmHg 58%
    19:00 +18°C° 0 mm 2 mps 724 mmHg 61%
    20:00 +17°C° 0 mm 2 mps 724 mmHg 64%
    21:00 +17°C° 0 mm 2 mps 724 mmHg 65%
    22:00 +17°C° 0 mm 2 mps 724 mmHg 66%
    23:00 +16°C° 0 mm 2 mps 724 mmHg 67%
    Show more